EW2295 Weather Reports


time (UTC)temp
C
wind
direction
speed
KPH
gust
KPH
rain 1hr
cm
rain 24hr
cm
rain mn
cm
humidity
%
barometer
mb
20260505102045 12 0 0.0 8.0 0.08 0.30 0.13 95 1010.5
20260505101554 12 337 0.0 6.4 0.08 0.30 0.13 95 1010.4
20260505101044 12 0 0.0 6.4 0.10 0.30 0.13 95 1010.4
20260505100544 12 0 0.0 6.4 0.10 0.30 0.13 95 1010.4
20260505100049 12 0 0.0 6.4 0.10 0.30 0.13 95 1010.5
20260505095544 12 0 0.0 4.8 0.10 0.30 0.13 95 1010.5
20260505095047 12 0 0.0 3.2 0.10 0.30 0.13 95 1010.4
20260505094551 12 0 0.0 8.0 0.10 0.30 0.13 95 1010.4
20260505094044 12 0 0.0 8.0 0.08 0.28 0.08 95 1010.4
20260505093544 13 0 0.0 6.4 0.05 0.25 0.08 94 1010.4
20260505093058 13 0 0.0 6.4 0.05 0.25 0.08 95 1010.4
20260505092547 13 0 0.0 6.4 0.00 0.20 0.03 95 1010.4
20260505092046 13 0 0.0 6.4 0.00 0.20 0.03 95 1010.5
20260505091601 13 0 0.0 1.6 0.00 0.18 0.00 95 1010.5
20260505091046 13 0 0.0 6.4 0.00 0.18 0.00 94 1010.4
20260505090545 13 0 0.0 6.4 0.00 0.18 0.00 95 1010.5
20260505090052 13 0 0.0 1.6 0.00 0.18 0.00 95 1010.5
20260505085546 13 0 0.0 0.0 0.00 0.18 0.00 95 1010.5
20260505085047 13 0 0.0 0.0 0.00 0.18 0.00 95 1010.4
20260505084552 13 0 0.0 0.0 0.00 0.18 0.00 95 1010.5
20260505084049 13 0 0.0 0.0 0.00 0.18 0.00 95 1010.6
20260505083544 13 0 0.0 0.0 0.00 0.18 0.00 95 1010.5
20260505083056 13 0 0.0 0.0 0.00 0.18 0.00 95 1010.5
20260505082544 13 0 0.0 0.0 0.00 0.18 0.00 95 1010.5
20260505082044 13 0 0.0 0.0 0.00 0.18 0.00 95 1010.4
20260505081604 13 0 0.0 0.0 0.00 0.18 0.00 95 1010.4
20260505081046 13 0 0.0 0.0 0.00 0.18 0.00 95 1010.4
20260505080545 13 0 0.0 0.0 0.00 0.18 0.00 96 1010.5
20260505080050 13 0 0.0 0.0 0.00 0.18 0.00 96 1010.6
20260505075545 13 0 0.0 0.0 0.00 0.18 0.00 96 1010.6
20260505075045 13 0 0.0 0.0 0.00 0.18 0.00 96 1010.6
20260505074556 13 0 0.0 0.0 0.00 0.18 0.00 96 1010.5
20260505074045 13 0 0.0 0.0 0.00 0.18 0.00 96 1010.5
20260505073542 13 0 0.0 0.0 0.00 0.18 0.00 96 1010.6
20260505073122 13 0 0.0 0.0 0.00 0.18 0.00 96 1010.6
20260505072548 13 0 0.0 0.0 0.00 0.18 0.00 96 1010.5
20260505072046 13 0 0.0 0.0 0.00 0.18 0.00 96 1010.6
20260505071600 13 0 0.0 0.0 0.00 0.18 0.00 96 1010.7
20260505071045 13 0 0.0 0.0 0.00 0.18 0.00 96 1010.7
20260505070547 13 0 0.0 0.0 0.00 0.18 0.00 96 1010.8
20260505070101 13 0 0.0 0.0 0.00 0.18 0.00 96 1010.7
20260505065547 13 0 0.0 0.0 0.00 0.18 0.00 96 1010.9
20260505065044 13 0 0.0 0.0 0.00 0.18 0.00 96 1010.8
20260505064553 13 0 0.0 0.0 0.00 0.18 0.00 96 1010.7
20260505064047 13 0 0.0 0.0 0.00 0.18 0.00 96 1010.8
20260505063545 12 0 0.0 0.0 0.00 0.18 0.00 96 1010.8
20260505063050 13 0 0.0 0.0 0.00 0.18 0.00 96 1010.9
20260505062546 13 0 0.0 0.0 0.00 0.18 0.00 96 1010.9
20260505062051 13 0 0.0 0.0 0.00 0.18 0.00 96 1010.9
20260505061554 13 0 0.0 0.0 0.00 0.18 0.00 96 1010.8
20260505061045 13 0 0.0 0.0 0.00 0.18 0.00 96 1010.9
20260505060545 13 0 0.0 0.0 0.00 0.18 0.00 96 1011.0
20260505060057 13 0 0.0 0.0 0.00 0.18 0.00 96 1011.0
20260505055548 13 0 0.0 0.0 0.00 0.18 0.00 96 1010.9
20260505055045 13 0 0.0 0.0 0.00 0.18 0.00 96 1011.0
20260505054554 12 0 0.0 0.0 0.00 0.18 0.00 96 1011.0
20260505054044 13 0 0.0 0.0 0.00 0.18 0.00 96 1010.9
20260505053547 13 0 0.0 0.0 0.00 0.18 0.00 96 1011.0
20260505053052 13 0 0.0 0.0 0.00 0.18 0.00 96 1011.0
20260505052544 13 0 0.0 0.0 0.00 0.18 0.00 96 1011.0
20260505052046 12 0 0.0 0.0 0.00 0.18 0.00 96 1011.0
20260505051602 12 0 0.0 0.0 0.00 0.18 0.00 96 1011.0
20260505051045 12 0 0.0 0.0 0.00 0.18 0.00 96 1011.0
20260505050548 13 0 0.0 0.0 0.00 0.18 0.00 96 1011.0
20260505050107 13 0 0.0 0.0 0.00 0.18 0.00 96 1010.9
20260505041559 12 0 0.0 0.0 0.00 0.18 0.00 96 1011.0
20260505041045 12 0 0.0 0.0 0.00 0.18 0.00 96 1011.0
20260505040544 12 0 0.0 0.0 0.00 0.18 0.00 96 1011.0
20260505040057 12 0 0.0 0.0 0.00 0.18 0.00 96 1011.1
20260505035544 12 0 0.0 0.0 0.00 0.18 0.00 96 1011.1
20260505035045 12 0 0.0 0.0 0.00 0.18 0.00 96 1011.1
20260505034552 12 0 0.0 0.0 0.00 0.18 0.00 96 1011.0
20260505034045 12 0 0.0 0.0 0.00 0.18 0.00 96 1011.1
20260505033545 12 0 0.0 0.0 0.00 0.18 0.00 96 1011.2
20260505033054 12 0 0.0 0.0 0.00 0.18 0.00 96 1011.3
20260505032544 12 0 0.0 0.0 0.00 0.18 0.00 96 1011.3
20260505032050 12 0 0.0 0.0 0.00 0.18 0.00 96 1011.3
20260505031554 12 0 0.0 0.0 0.00 0.18 0.00 96 1011.3
20260505031045 12 0 0.0 0.0 0.00 0.18 0.00 96 1011.3
20260505030547 12 0 0.0 0.0 0.00 0.18 0.00 96 1011.4
20260505030052 12 0 0.0 0.0 0.00 0.18 0.00 96 1011.4
20260505025546 12 0 0.0 0.0 0.00 0.18 0.00 96 1011.5
20260505025045 12 0 0.0 0.0 0.00 0.18 0.00 96 1011.4
20260505024600 12 0 0.0 0.0 0.00 0.18 0.00 96 1011.3
20260505024045 13 0 0.0 0.0 0.00 0.18 0.00 96 1011.4
20260505023546 12 0 0.0 0.0 0.00 0.18 0.00 96 1011.4
20260505023054 12 0 0.0 0.0 0.00 0.18 0.00 96 1011.5
20260505022545 12 0 0.0 0.0 0.00 0.18 0.00 96 1011.6
20260505022045 12 0 0.0 0.0 0.00 0.18 0.00 96 1011.6
20260505021552 12 0 0.0 0.0 0.00 0.18 0.00 96 1011.6
20260505021045 12 0 0.0 0.0 0.00 0.18 0.00 96 1011.7
20260505020611 12 0 0.0 0.0 0.00 0.18 0.00 96 1011.8
20260505020052 12 0 0.0 0.0 0.00 0.18 0.00 96 1011.7
20260505015545 12 0 0.0 0.0 0.00 0.18 0.00 96 1011.6
20260505015045 12 0 0.0 0.0 0.00 0.18 0.00 96 1011.8
20260505014551 12 0 0.0 0.0 0.00 0.18 0.00 96 1011.8
20260505014046 12 0 0.0 0.0 0.00 0.18 0.00 96 1011.8
20260505013544 12 0 0.0 0.0 0.00 0.18 0.00 96 1011.7
20260505013111 12 0 0.0 0.0 0.00 0.18 0.00 96 1011.8
20260505012549 13 0 0.0 0.0 0.00 0.18 0.00 96 1011.8
20260505012045 12 0 0.0 0.0 0.00 0.18 0.00 95 1011.9
20260505011554 12 0 0.0 0.0 0.00 0.18 0.00 95 1011.9
20260505011043 12 0 0.0 0.0 0.00 0.18 0.00 95 1012.0
20260505010544 13 0 0.0 0.0 0.00 0.18 0.00 95 1012.1
20260505005546 13 0 0.0 0.0 0.00 0.18 0.00 96 1012.2
20260505005044 13 0 0.0 0.0 0.00 0.18 0.00 96 1012.2
20260505004552 13 0 0.0 0.0 0.00 0.18 0.00 96 1012.3
20260505004044 13 0 0.0 0.0 0.00 0.18 0.00 96 1012.3
20260505003548 13 0 0.0 0.0 0.00 0.18 0.00 95 1012.2
20260505003057 13 0 0.0 0.0 0.00 0.18 0.00 95 1012.3
20260505002545 13 0 0.0 0.0 0.00 0.18 0.00 95 1012.4
20260505002044 13 0 0.0 0.0 0.00 0.18 0.00 95 1012.3
20260505001551 13 0 0.0 0.0 0.00 0.18 0.00 95 1012.5
20260505001044 13 0 0.0 0.0 0.00 0.18 0.00 95 1012.5
20260505000546 13 0 0.0 0.0 0.00 0.18 0.00 95 1012.5
20260505000059 13 0 0.0 0.0 0.00 0.18 0.00 95 1012.6
20260504235544 13 0 0.0 0.0 0.00 0.18 0.00 95 1012.8
20260504235045 13 0 0.0 0.0 0.00 0.18 0.00 95 1012.8
20260504234549 13 0 0.0 0.0 0.00 0.18 0.00 95 1012.9
20260504234044 13 0 0.0 0.0 0.00 0.18 0.00 95 1012.9
20260504233543 13 0 0.0 0.0 0.00 0.18 0.00 95 1013.0
20260504233058 13 0 0.0 0.0 0.00 0.18 0.00 95 1012.9
20260504232546 13 0 0.0 0.0 0.00 0.18 0.00 95 1013.0
20260504232043 13 0 0.0 0.0 0.00 0.18 0.00 95 1013.1
20260504231552 13 0 0.0 0.0 0.00 0.18 0.00 95 1013.1
20260504231043 13 0 0.0 0.0 0.00 0.18 0.00 95 1013.1
20260504230549 13 0 0.0 0.0 0.00 0.18 0.00 95 1013.2
20260504225544 13 0 0.0 0.0 0.00 0.18 0.00 95 1013.3
20260504225046 13 0 0.0 0.0 0.00 0.18 0.00 95 1013.3
20260504224553 13 0 0.0 0.0 0.00 0.18 0.00 95 1013.3
20260504224045 13 0 0.0 0.0 0.00 0.18 0.00 95 1013.3
20260504223544 13 0 0.0 0.0 0.00 0.18 0.00 95 1013.4
20260504223100 13 0 0.0 0.0 0.00 0.18 0.00 95 1013.4
20260504222544 13 0 0.0 0.0 0.00 0.18 0.00 95 1013.5
20260504222046 13 0 0.0 0.0 0.00 0.18 0.00 95 1013.5
20260504221603 13 0 0.0 0.0 0.00 0.18 0.00 95 1013.5
20260504221044 13 0 0.0 0.0 0.00 0.18 0.00 95 1013.6
20260504220545 13 0 0.0 0.0 0.00 0.18 0.00 95 1013.6
20260504220058 13 0 0.0 0.0 0.00 0.18 0.00 95 1013.7
20260504215545 13 0 0.0 0.0 0.00 0.18 0.18 95 1013.7
20260504215046 13 0 0.0 0.0 0.00 0.18 0.18 95 1013.8
20260504214607 13 0 0.0 0.0 0.00 0.18 0.18 95 1013.8
20260504214045 13 0 0.0 0.0 0.00 0.18 0.18 95 1013.8
20260504213545 13 0 0.0 0.0 0.00 0.18 0.18 95 1013.8
20260504213057 13 0 0.0 0.0 0.00 0.18 0.18 95 1013.8
20260504212545 13 0 0.0 0.0 0.00 0.18 0.18 95 1013.9
20260504212044 13 0 0.0 0.0 0.00 0.18 0.18 95 1013.8
20260504211555 13 0 0.0 0.0 0.00 0.18 0.18 94 1013.8
20260504211048 13 0 0.0 0.0 0.00 0.18 0.18 94 1013.9
20260504210548 13 0 0.0 0.0 0.00 0.18 0.18 94 1014.0
20260504210052 13 0 0.0 0.0 0.00 0.15 0.15 94 1013.8
20260504205545 13 0 0.0 0.0 0.00 0.15 0.15 94 1013.9
20260504205044 13 0 0.0 0.0 0.00 0.15 0.15 94 1013.8
20260504204555 13 0 0.0 0.0 0.00 0.15 0.15 94 1013.9
20260504204044 13 0 0.0 0.0 0.00 0.15 0.15 94 1014.0
20260504203546 13 0 0.0 0.0 0.00 0.15 0.15 94 1013.9
20260504203058 13 0 0.0 0.0 0.00 0.15 0.15 94 1013.9
20260504202545 13 0 0.0 0.0 0.00 0.15 0.15 94 1013.8
20260504202046 13 0 0.0 0.0 0.00 0.15 0.15 94 1013.8
20260504201608 13 0 0.0 0.0 0.00 0.15 0.15 94 1013.9
20260504201049 13 0 0.0 0.0 0.00 0.15 0.15 94 1013.8
20260504200545 13 0 0.0 0.0 0.00 0.15 0.15 94 1013.8
20260504200053 13 0 0.0 0.0 0.00 0.15 0.15 94 1013.8
20260504195543 13 0 0.0 0.0 0.00 0.15 0.15 94 1013.8
20260504195046 13 0 0.0 0.0 0.00 0.15 0.15 94 1013.8
20260504194554 13 0 0.0 0.0 0.00 0.15 0.15 94 1013.8
20260504194045 13 0 0.0 0.0 0.00 0.15 0.15 94 1013.8
20260504193545 13 0 0.0 0.0 0.00 0.15 0.15 94 1013.7
20260504193051 13 0 0.0 0.0 0.00 0.15 0.15 93 1013.7
20260504192542 13 0 0.0 0.0 0.00 0.15 0.15 93 1013.6
20260504192046 13 0 0.0 0.0 0.00 0.15 0.15 93 1013.5
20260504191559 13 0 0.0 0.0 0.00 0.15 0.15 93 1013.4
20260504191045 13 0 0.0 0.0 0.00 0.15 0.15 93 1013.4
20260504190545 14 0 0.0 0.0 0.00 0.15 0.15 93 1013.5
20260504190114 14 0 0.0 0.0 0.00 0.15 0.15 93 1013.4
20260504185547 14 0 0.0 0.0 0.00 0.15 0.15 93 1013.3
20260504185045 14 0 0.0 0.0 0.00 0.15 0.15 93 1013.4
20260504184615 14 0 0.0 0.0 0.03 0.15 0.15 93 1013.4
20260504184045 14 0 0.0 0.0 0.00 0.13 0.13 92 1013.4
20260504183545 14 0 0.0 0.0 0.00 0.13 0.13 92 1013.6
20260504183052 14 0 0.0 0.0 0.00 0.13 0.13 92 1013.6
20260504182544 14 0 0.0 0.0 0.00 0.13 0.13 92 1013.7
20260504182044 14 0 0.0 0.0 0.03 0.13 0.13 92 1013.7
20260504181551 14 0 0.0 0.0 0.03 0.13 0.13 92 1013.7
20260504181045 14 0 0.0 0.0 0.05 0.13 0.13 92 1013.7
20260504180544 14 0 0.0 0.0 0.05 0.13 0.13 91 1013.8
20260504180053 14 0 0.0 0.0 0.08 0.13 0.13 91 1013.8
20260504175545 14 0 0.0 0.0 0.08 0.13 0.13 91 1013.7
20260504175045 15 0 0.0 0.0 0.08 0.13 0.13 91 1013.9
20260504174554 15 0 0.0 0.0 0.08 0.10 0.10 91 1013.9
20260504174045 15 0 0.0 0.0 0.08 0.10 0.10 90 1014.0
20260504173545 15 0 0.0 0.0 0.08 0.10 0.10 90 1013.9
20260504173049 15 0 0.0 0.0 0.08 0.10 0.10 90 1014.0
20260504172544 15 0 0.0 0.0 0.08 0.10 0.10 89 1014.0
20260504172045 15 0 0.0 0.0 0.08 0.08 0.08 88 1014.0
20260504171551 15 0 0.0 4.8 0.08 0.08 0.08 88 1014.0
20260504171045 15 0 0.0 12.9 0.05 0.08 0.08 87 1014.0
20260504170544 15 0 1.6 12.9 0.03 0.05 0.05 86 1014.0
20260504151045 18 0 0.0 14.5 0.00 0.00 0.00 66 1013.4
20260504150545 18 0 0.0 8.0 0.00 0.00 0.00 66 1013.5
20260504141044 18 0 0.0 6.4 0.00 0.00 0.00 66 1013.1
20260504140546 19 0 0.0 1.6 0.00 0.00 0.00 66 1013.1
20260504140106 19 0 0.0 3.2 0.00 0.00 0.00 67 1013.2
20260504130544 19 0 0.0 11.3 0.00 0.00 0.00 67 1013.5
20260504120105 19 250 1.6 14.5 0.00 0.00 0.00 65 1013.5
20260504110547 20 0 0.0 8.0 0.00 0.00 0.00 64 1013.5